This is the latest recevied weather packets stored in our database for station/object KB1FFS. If no packets are shown the sender has not sent any weather packets the latest 10 day(s).
| Time | Temp. | Humidity | Pressure | Rain* | Wind** | Luminosity | Snow |
|---|---|---|---|---|---|---|---|
| 1777589291 | 17.22° C | 73% | 1014.4 hPa | 0 mm | - | 35 W/m² | - |
| 1777588989 | 17.22° C | 73% | 1014.5 hPa | 0 mm | - | 37 W/m² | - |
| 1777588684 | 17.22° C | 74% | 1014.5 hPa | 0 mm | - | 45 W/m² | - |
| 1777588380 | 17.22° C | 74% | 1014.4 hPa | 0 mm | - | 55 W/m² | - |
| 1777588076 | 17.22° C | 74% | 1014.6 hPa | 0 mm | - | 55 W/m² | - |
| 1777587772 | 17.22° C | 74% | 1015 hPa | 0 mm | - | 39 W/m² | - |
| 1777587470 | 17.22° C | 74% | 1014.8 hPa | 0 mm | - | 44 W/m² | - |
| 1777587168 | 17.22° C | 74% | 1014.9 hPa | 0 mm | - | 44 W/m² | - |
| 1777586864 | 17.22° C | 73% | 1014.9 hPa | 0 mm | - | 43 W/m² | - |
| 1777586559 | 17.22° C | 72% | 1014.9 hPa | 0 mm | - | 48 W/m² | - |
| 1777586255 | 17.22° C | 73% | 1014.7 hPa | 0 mm | - | 44 W/m² | - |
| 1777585952 | 17.22° C | 74% | 1014.7 hPa | 0 mm | - | 62 W/m² | - |
| 1777585648 | 17.22° C | 74% | 1014.8 hPa | 0 mm | - | 50 W/m² | - |
| 1777585343 | 17.22° C | 73% | 1014.9 hPa | 0 mm | - | 57 W/m² | - |
| 1777585038 | 17.78° C | 72% | 1014.9 hPa | 0 mm | - | 40 W/m² | - |
| 1777584734 | 17.78° C | 72% | 1015.2 hPa | 0 mm | - | 40 W/m² | - |
| 1777584433 | 17.78° C | 74% | 1015.1 hPa | 0 mm | - | 47 W/m² | - |
| 1777584129 | 17.78° C | 73% | 1015 hPa | 0 mm | - | 65 W/m² | - |
| 1777583828 | 17.78° C | 73% | 1014.8 hPa | 0 mm | - | 106 W/m² | - |
| 1777583524 | 17.78° C | 74% | 1015 hPa | 0 mm | - | 103 W/m² | - |
| 1777583217 | 17.78° C | 74% | 1015.1 hPa | 0 mm | - | 101 W/m² | - |
| 1777582912 | 17.78° C | 74% | 1015.2 hPa | 0 mm | - | 110 W/m² | - |
| 1777582610 | 17.78° C | 74% | 1015.1 hPa | 0 mm | - | 78 W/m² | - |
| 1777582305 | 17.78° C | 74% | 1015.1 hPa | 0 mm | - | 69 W/m² | - |
| 1777582003 | 17.78° C | 74% | 1015.1 hPa | 0 mm | - | 88 W/m² | - |
* Rain latest hour (hover to see other rain measurements)
** Current wind speed in m/s (hover to see current wind gust speed)